Location: Brede
(50.9167°N, 0.6000°E)
Time: 03:27:39
(UTC+00:00)

Cosmos 1340 Rocket - Pass Details

Date: 08 August 2020
Orbit: 530 x 558 km, 81.2° (Epoch: 25 September)

Event Time Altitude Azimuth Distance (km) Brightness Sun altitude
Exits shadow 03:25:13 13° 217° (SW) 1,611 4.6 -9.9°
Maximum altitude 03:28:31 44° 288° (WNW) 763 3.3 -9.5°
Drops below altitude 10° 03:32:20 10° 1° (N) 1,808 6.1 -9.0°
Sets 03:34:34 0° 8° (N) 2,701 7.1 -8.7°
